• In Belgien
  • Länderverzeichnis
  • Für 7 Tage
  • Wassertemperatur
  • Satellitenkarten
  • Wetterkarte
  • Widgets
  • user-avatar
    Anmelden

    Stündliche Wetter Amanzimtoti

    Heute, 15 November, Donnerstag

    Zeit Temperatur Niederschläge Wind Luftdruck Luftfeuchtigkeit
    00:00 +23°C° 0 mm 6 m/S 756 mmHg 89%
    01:00 +23°C° 0 mm 6 m/S 755 mmHg 87%
    02:00 +23°C° 0 mm 6 m/S 755 mmHg 88%
    03:00 +23°C° 0 mm 5 m/S 755 mmHg 88%
    04:00 +22°C° 0 mm 5 m/S 755 mmHg 88%
    05:00 +22°C° 0 mm 4 m/S 756 mmHg 88%
    06:00 +25°C° 0 mm 4 m/S 756 mmHg 82%
    07:00 +27°C° 0 mm 3 m/S 756 mmHg 76%
    08:00 +28°C° 0 mm 3 m/S 756 mmHg 70%
    09:00 +30°C° 0 mm 3 m/S 756 mmHg 66%
    10:00 +31°C° 0 mm 3 m/S 756 mmHg 62%
    11:00 +33°C° 0 mm 3 m/S 756 mmHg 59%
    12:00 +33°C° 0 mm 3 m/S 755 mmHg 58%
    13:00 +34°C° 0 mm 4 m/S 755 mmHg 57%
    14:00 +34°C° 0 mm 4 m/S 754 mmHg 56%
    15:00 +33°C° 0 mm 4 m/S 754 mmHg 60%
    16:00 +32°C° 0 mm 4 m/S 755 mmHg 65%
    17:00 +30°C° 0 mm 4 m/S 755 mmHg 70%
    18:00 +28°C° 0 mm 3 m/S 755 mmHg 76%
    19:00 +27°C° 0 mm 3 m/S 756 mmHg 83%
    20:00 +25°C° 0 mm 2 m/S 756 mmHg 90%
    21:00 +25°C° 0 mm 2 m/S 757 mmHg 90%
    22:00 +24°C° 0 mm 2 m/S 757 mmHg 91%
    23:00 +24°C° 0 mm 2 m/S 758 mmHg 91%

    Morgen, 16 November, Freitag

    Zeit Temperatur Niederschläge Wind Luftdruck Luftfeuchtigkeit
    00:00 +24°C° 0 mm 2 m/S 758 mmHg 92%
    01:00 +23°C° 0 mm 2 m/S 758 mmHg 92%
    02:00 +23°C° 0 mm 2 m/S 758 mmHg 93%
    03:00 +23°C° 0 mm 2 m/S 758 mmHg 94%
    04:00 +23°C° 0 mm 2 m/S 758 mmHg 94%
    05:00 +21°C° 0 mm 2 m/S 758 mmHg 95%
    06:00 +25°C° 0 mm 2 m/S 758 mmHg 85%
    07:00 +27°C° 0 mm 2 m/S 758 mmHg 75%
    08:00 +30°C° 0 mm 2 m/S 759 mmHg 65%
    09:00 +31°C° 0 mm 2 m/S 758 mmHg 62%
    10:00 +31°C° 0 mm 3 m/S 758 mmHg 59%
    11:00 +33°C° 0 mm 3 m/S 758 mmHg 56%
    12:00 +33°C° 0 mm 3 m/S 757 mmHg 59%
    13:00 +33°C° 0 mm 3 m/S 757 mmHg 62%
    14:00 +31°C° 0 mm 3 m/S 756 mmHg 66%
    15:00 +30°C° 0 mm 3 m/S 756 mmHg 70%
    16:00 +29°C° 0 mm 3 m/S 756 mmHg 75%
    17:00 +28°C° 0 mm 2 m/S 756 mmHg 79%
    18:00 +27°C° 0.2 mm 2 m/S 756 mmHg 84%
    19:00 +26°C° 0.2 mm 2 m/S 756 mmHg 89%
    20:00 +25°C° 0.2 mm 2 m/S 757 mmHg 94%
    21:00 +25°C° 0 mm 2 m/S 757 mmHg 94%
    22:00 +25°C° 0 mm 2 m/S 757 mmHg 95%
    23:00 +25°C° 0 mm 2 m/S 757 mmHg 95%

    übermorgen, 17 November, Samstag

    Zeit Temperatur Niederschläge Wind Luftdruck Luftfeuchtigkeit
    00:00 +25°C° 0 mm 2 m/S 757 mmHg 95%
    01:00 +25°C° 0 mm 2 m/S 756 mmHg 96%
    02:00 +25°C° 0 mm 2 m/S 756 mmHg 96%
    03:00 +25°C° 0.1 mm 2 m/S 756 mmHg 96%
    04:00 +24°C° 0.1 mm 2 m/S 756 mmHg 97%
    05:00 +24°C° 0.1 mm 2 m/S 756 mmHg 97%
    06:00 +25°C° 0.1 mm 4 m/S 756 mmHg 94%
    07:00 +25°C° 0.1 mm 5 m/S 757 mmHg 92%
    08:00 +24°C° 0.1 mm 6 m/S 757 mmHg 89%
    09:00 +26°C° 0.1 mm 6 m/S 757 mmHg 87%
    10:00 +26°C° 0.1 mm 7 m/S 757 mmHg 84%
    11:00 +26°C° 0.1 mm 7 m/S 757 mmHg 82%
    12:00 +26°C° 0 mm 7 m/S 757 mmHg 80%
    13:00 +26°C° 0 mm 7 m/S 756 mmHg 78%
    14:00 +26°C° 0 mm 7 m/S 756 mmHg 76%
    15:00 +24°C° 0.3 mm 6 m/S 756 mmHg 80%
    16:00 +23°C° 0.3 mm 6 m/S 757 mmHg 85%
    17:00 +22°C° 0.3 mm 6 m/S 757 mmHg 90%
    18:00 +22°C° 0.4 mm 5 m/S 757 mmHg 91%
    19:00 +22°C° 0.4 mm 5 m/S 758 mmHg 93%
    20:00 +21°C° 0.4 mm 4 m/S 759 mmHg 94%
    21:00 +21°C° 0.6 mm 4 m/S 759 mmHg 95%
    22:00 +21°C° 0.6 mm 4 m/S 759 mmHg 95%
    23:00 +21°C° 0.6 mm 4 m/S 760 mmHg 95%

    18 November, Sonntag

    Zeit Temperatur Niederschläge Wind Luftdruck Luftfeuchtigkeit
    00:00 +21°C° 0.2 mm 4 m/S 759 mmHg 96%
    01:00 +21°C° 0.2 mm 4 m/S 759 mmHg 96%
    02:00 +21°C° 0.2 mm 4 m/S 758 mmHg 96%
    03:00 +21°C° 0.1 mm 4 m/S 758 mmHg 96%
    04:00 +21°C° 0.1 mm 4 m/S 758 mmHg 96%
    05:00 +21°C° 0.1 mm 4 m/S 758 mmHg 95%
    06:00 +21°C° 0 mm 4 m/S 759 mmHg 95%
    07:00 +21°C° 0 mm 4 m/S 759 mmHg 94%
    08:00 +21°C° 0 mm 4 m/S 760 mmHg 93%
    09:00 +21°C° 0.1 mm 4 m/S 760 mmHg 91%
    10:00 +21°C° 0.1 mm 4 m/S 760 mmHg 89%
    11:00 +22°C° 0.1 mm 4 m/S 760 mmHg 86%
    12:00 +22°C° 0.1 mm 4 m/S 759 mmHg 87%
    13:00 +22°C° 0.1 mm 4 m/S 759 mmHg 87%
    14:00 +22°C° 0.1 mm 3 m/S 759 mmHg 87%
    15:00 +21°C° 0.1 mm 4 m/S 759 mmHg 89%
    16:00 +21°C° 0.1 mm 4 m/S 759 mmHg 91%
    17:00 +20°C° 0.1 mm 4 m/S 760 mmHg 93%
    18:00 +20°C° 0.2 mm 4 m/S 760 mmHg 93%
    19:00 +20°C° 0.2 mm 4 m/S 761 mmHg 93%
    20:00 +20°C° 0.2 mm 3 m/S 762 mmHg 93%
    21:00 +20°C° 0.1 mm 3 m/S 762 mmHg 93%
    22:00 +19°C° 0.1 mm 2 m/S 762 mmHg 93%
    23:00 +19°C° 0.1 mm 2 m/S 763 mmHg 93%

    19 November, Montag

    Zeit Temperatur Niederschläge Wind Luftdruck Luftfeuchtigkeit
    00:00 +19°C° 0.1 mm 2 m/S 762 mmHg 93%
    01:00 +20°C° 0.1 mm 1 m/S 761 mmHg 93%
    02:00 +20°C° 0.1 mm 1 m/S 761 mmHg 93%
    03:00 +20°C° 0.1 mm 1 m/S 761 mmHg 94%
    04:00 +20°C° 0.1 mm 1 m/S 761 mmHg 94%
    05:00 +20°C° 0.1 mm 1 m/S 761 mmHg 94%
    06:00 +19°C° 0.1 mm 2 m/S 761 mmHg 92%
    07:00 +20°C° 0.1 mm 3 m/S 761 mmHg 90%
    08:00 +21°C° 0.1 mm 3 m/S 761 mmHg 88%
    09:00 +21°C° 0.1 mm 4 m/S 761 mmHg 88%
    10:00 +21°C° 0.1 mm 5 m/S 760 mmHg 87%
    11:00 +22°C° 0.1 mm 5 m/S 760 mmHg 86%
    12:00 +21°C° 0.1 mm 5 m/S 759 mmHg 87%
    13:00 +21°C° 0.1 mm 6 m/S 759 mmHg 88%
    14:00 +21°C° 0.1 mm 6 m/S 758 mmHg 90%
    15:00 +21°C° 0.1 mm 6 m/S 758 mmHg 90%
    16:00 +21°C° 0.1 mm 6 m/S 757 mmHg 90%
    17:00 +21°C° 0.1 mm 7 m/S 757 mmHg 90%
    18:00 +21°C° 0.2 mm 7 m/S 757 mmHg 91%
    19:00 +21°C° 0.2 mm 7 m/S 758 mmHg 93%
    20:00 +21°C° 0.2 mm 6 m/S 758 mmHg 94%
    21:00 +20°C° 0.2 mm 6 m/S 758 mmHg 95%
    22:00 +20°C° 0.2 mm 6 m/S 758 mmHg 95%
    23:00 +20°C° 0.2 mm 6 m/S 758 mmHg 96%

    20 November, Dienstag

    Zeit Temperatur Niederschläge Wind Luftdruck Luftfeuchtigkeit
    00:00 +20°C° 0.7 mm 6 m/S 757 mmHg 96%
    01:00 +20°C° 0.7 mm 6 m/S 757 mmHg 96%
    02:00 +20°C° 0.7 mm 7 m/S 756 mmHg 96%
    03:00 +20°C° 0 mm 6 m/S 756 mmHg 96%
    04:00 +19°C° 0 mm 6 m/S 755 mmHg 96%
    05:00 +19°C° 0 mm 6 m/S 755 mmHg 96%
    06:00 +20°C° 0 mm 6 m/S 755 mmHg 94%
    07:00 +22°C° 0 mm 6 m/S 754 mmHg 91%
    08:00 +23°C° 0 mm 7 m/S 754 mmHg 88%
    09:00 +27°C° 0 mm 7 m/S 753 mmHg 77%
    10:00 +30°C° 0 mm 7 m/S 753 mmHg 66%
    11:00 +34°C° 0 mm 7 m/S 752 mmHg 56%
    12:00 +33°C° 0 mm 7 m/S 752 mmHg 59%
    13:00 +32°C° 0 mm 7 m/S 751 mmHg 62%
    14:00 +32°C° 0 mm 7 m/S 750 mmHg 65%
    15:00 +29°C° 0.5 mm 7 m/S 750 mmHg 73%
    16:00 +28°C° 0.5 mm 7 m/S 750 mmHg 80%
    17:00 +26°C° 0.5 mm 7 m/S 750 mmHg 88%
    18:00 +26°C° 3 mm 7 m/S 750 mmHg 91%
    19:00 +24°C° 3 mm 6 m/S 751 mmHg 94%
    20:00 +23°C° 3 mm 5 m/S 752 mmHg 97%
    21:00 +23°C° 7.3 mm 5 m/S 752 mmHg 97%
    22:00 +23°C° 7.3 mm 5 m/S 753 mmHg 97%
    23:00 +23°C° 7.3 mm 4 m/S 754 mmHg 98%
    Mehr zeigen